Wind_Speed
63 63 64 64 64 65 66 67 68 69 70 71 72 73 74 75 77 78 80 82 84 86 88 90 92 95 97 99 101 102 103 104 103 103 101 100 98 95 93 89 86 82 79 75 72 68 65 62 60 58 56 54 53 52 51 50 49 48 46 45 44 43 42 42 42 42 42 42 42 42 42 42 41 41 41 41 40 40 39 39 38 38 37 37 36 36
64 64 64 65 66 67 68 69 70 71 72 73 74 74 76 77 79 81 83 85 87 89 91 93 95 98 100 102 103 103 103 102 101 99 97 95 92 89 86 82 78 75 71 67 64 61 59 56 54 53 52 51 50 50 49 48 47 45 44 42 42 41 41 41 41 41 41 41 41 40 40 40 40 39 39 39 38 38 37 37 36 36 35 35 34 34
64 65 66 66 67 68 69 70 71 72 73 74 75 76 78 79 81 83 85 87 89 92 94 96 99 101 102 103 103 102 101 99 97 94 91 88 85 82 78 75 71 67 64 60 58 55 54 52 51 51 50 50 49 48 47 46 45 43 42 41 41 41 41 40 40 40 39 39 38 38 38 38 38 37 37 36 36 35 35 35 34 34 34 33 33 33
65 66 67 68 68 69 70 72 73 74 75 76 77 78 80 82 84 86 88 90 92 95 97 99 101 102 102 102 101 99 96 94 91 88 85 82 78 75 71 67 64 60 57 55 53 52 51 50 50 50 49 49 48 48 46 45 43 42 41 40 40 40 40 39 38 38 37 36 36 36 36 36 36 36 35 35 34 34 34 33 33 33 33 33 33 33
66 67 68 69 70 71 72 73 74 75 76 78 79 81 83 84 86 89 91 93 95 98 100 101 102 102 101 99 97 94 91 88 85 82 78 75 71 68 64 61 58 55 53 52 51 50 50 50 50 50 49 49 48 47 46 44 43 41 40 40 39 39 38 37 36 35 35 34 34 34 34 35 35 35 34 34 33 33 33 33 33 33 33 33 33 34
68 69 70 71 71 72 73 74 76 77 78 80 82 83 85 87 89 92 94 96 98 100 101 102 101 99 97 94 91 88 85 82 78 75 72 68 65 62 59 56 54 52 51 51 50 50 50 50 50 50 49 48 47 46 45 43 42 41 40 39 39 38 37 36 34 33 33 32 32 33 33 34 34 34 34 34 33 33 33 33 33 33 34 34 34 34
69 70 71 72 73 74 75 76 78 79 81 82 84 86 88 90 92 94 97 99 100 101 101 100 98 95 92 89 86 82 79 75 72 68 65 62 59 57 55 53 52 51 51 51 51 51 51 51 50 50 49 48 47 46 44 43 42 40 40 39 38 37 36 34 33 32 31 31 31 32 33 33 34 34 34 34 34 34 34 34 34 34 34 35 35 34
71 71 72 73 74 75 77 78 80 81 83 85 87 89 91 93 95 97 99 100 101 100 99 97 94 90 86 82 79 76 73 69 65 62 60 57 56 54 53 52 52 52 52 52 52 52 52 51 51 50 49 48 47 46 44 43 42 40 39 39 38 36 35 33 32 31 31 30 31 31 32 33 33 34 34 34 34 34 35 35 35 35 35 35 35 35
72 73 74 74 75 77 78 80 82 84 85 87 89 91 93 95 97 99 100 100 99 97 94 91 88 84 80 76 72 69 66 63 60 58 56 54 54 53 53 53 52 52 52 52 52 52 52 52 51 50 50 49 47 46 45 43 42 41 40 39 38 36 35 33 32 31 30 30 30 31 32 32 33 34 34 34 35 35 35 35 35 35 35 35 35 35
73 73 75 76 77 78 80 82 84 86 88 90 92 94 96 98 99 99 99 98 96 93 89 85 81 77 74 70 66 63 60 58 57 55 54 54 54 54 54 53 53 53 53 53 53 53 52 52 51 51 50 49 48 47 45 44 43 41 40 39 38 37 35 34 32 31 31 31 31 31 31 32 32 33 33 34 34 35 35 35 35 35 35 35 35 35
74 75 76 77 79 81 82 84 86 88 90 92 95 97 98 99 99 98 96 94 92 88 83 79 74 69 66 64 62 59 56 55 54 54 54 54 54 54 54 54 53 53 53 53 53 52 52 52 52 51 50 50 49 48 46 45 44 42 41 40 39 37 36 34 33 32 32 31 31 32 32 32 32 32 33 33 33 34 34 34 35 35 35 35 35 35
75 76 78 79 81 83 85 87 89 91 93 95 97 99 100 100 98 95 92 89 85 81 76 72 68 64 60 58 57 56 55 54 54 54 54 54 55 54 54 54 53 52 52 52 52 52 52 52 52 51 51 50 50 49 48 46 45 43 42 41 40 39 37 36 35 34 33 33 33 33 32 32 32 32 32 32 33 33 33 34 34 34 34 35 35 35
77 78 80 81 83 85 87 89 92 94 96 97 99 99 98 98 96 92 87 83 79 74 69 65 62 59 57 55 55 55 55 54 54 53 53 54 54 54 53 53 52 51 51 51 51 51 51 51 51 51 51 51 50 50 49 48 46 45 43 42 41 40 39 38 37 35 34 34 34 34 33 33 32 32 32 32 32 32 33 33 33 34 34 34 35 35
79 80 82 84 86 88 90 92 94 96 98 99 99 98 96 94 91 86 81 77 73 68 63 59 57 55 55 54 54 55 54 54 53 53 52 53 53 52 52 51 51 50 49 50 50 50 50 50 50 51 51 51 51 50 49 48 47 46 45 44 43 42 41 40 39 37 36 36 35 35 35 34 33 33 33 32 32 32 32 33 33 33 34 34 34 35
81 82 84 86 88 91 93 95 97 98 99 99 98 96 93 89 85 80 74 70 66 63 59 55 53 53 53 53 54 54 54 53 52 51 51 51 51 51 50 49 49 48 48 48 49 49 49 50 50 50 50 51 51 50 50 49 48 47 46 46 45 44 43 42 41 39 38 37 37 36 36 35 35 34 34 33 33 33 33 33 33 33 34 34 34 34
83 85 87 89 91 93 95 97 98 98 98 97 95 91 86 82 78 73 68 63 60 57 54 52 51 51 52 52 52 52 51 51 51 50 49 49 49 49 48 47 47 47 46 47 47 48 48 48 49 49 50 50 50 50 49 49 48 48 47 46 46 45 44 43 42 41 40 39 38 38 37 37 36 35 35 35 34 34 34 34 34 34 34 34 34 34
85 87 89 91 94 96 97 98 98 97 96 93 90 85 80 75 70 66 61 58 55 53 51 50 49 49 49 50 51 51 50 49 48 48 47 46 46 46 46 45 45 44 44 45 45 46 46 47 48 48 49 49 49 49 48 48 47 47 47 47 46 46 45 44 43 42 41 40 39 39 38 38 37 37 36 36 35 35 35 35 35 34 34 34 35 35
88 90 92 94 96 97 98 98 97 95 92 88 83 78 74 68 63 59 55 53 51 50 49 49 48 47 47 47 48 49 48 47 46 46 45 44 44 44 43 43 42 42 42 43 43 44 45 45 46 47 47 47 47 47 47 46 46 46 46 46 46 46 45 45 44 43 42 42 41 40 39 39 38 38 38 37 37 36 36 36 36 35 35 35 35 35
90 92 94 96 97 97 97 96 93 90 86 81 76 71 66 61 57 54 51 50 49 48 47 47 46 46 45 45 46 47 47 46 45 45 43 42 42 41 41 41 40 40 40 41 42 42 43 43 44 45 45 46 45 45 45 44 44 44 44 44 45 45 45 45 44 44 43 42 42 41 40 40 39 39 39 38 38 38 37 37 37 36 36 36 36 36
92 94 95 96 96 96 95 92 88 84 79 74 69 63 58 54 52 49 48 47 47 46 46 45 45 45 44 44 45 45 46 45 45 44 43 41 40 40 39 39 39 39 39 39 40 40 41 41 42 43 44 44 44 44 43 43 43 43 43 43 43 43 43 44 44 44 43 43 43 42 41 41 40 40 40 39 39 39 38 38 38 37 37 37 37 37
94 95 96 96 95 93 90 87 82 77 72 67 62 57 53 50 48 46 46 45 44 44 44 43 43 43 43 43 44 44 45 45 44 44 43 41 40 39 39 38 38 38 38 38 38 39 39 40 40 41 42 43 43 43 43 42 42 41 41 41 41 41 42 42 43 43 43 43 43 42 42 41 41 41 41 40 40 40 39 39 39 38 38 38 38 37
95 95 96 95 92 88 84 80 75 70 64 59 54 51 48 46 45 44 44 43 42 42 42 42 42 42 43 43 43 44 45 45 44 44 43 41 40 39 38 38 38 37 37 37 37 38 38 38 39 40 41 42 43 43 42 42 41 41 40 40 40 40 40 40 41 41 42 42 42 42 42 42 42 41 41 41 41 41 40 40 39 39 39 38 38 38
95 95 94 91 88 83 78 72 67 62 56 52 48 46 44 43 42 42 42 41 41 41 41 41 41 41 42 42 43 44 45 45 45 45 44 42 40 39 39 39 38 38 37 37 37 37 37 37 38 39 40 41 42 42 42 42 41 41 40 39 39 39 39 39 39 40 40 40 41 41 41 41 42 42 42 41 41 41 41 40 40 39 39 38 38 37
94 93 90 86 81 76 70 64 59 54 50 46 44 42 41 41 40 40 40 40 40 39 40 40 41 41 42 42 43 43 44 46 46 46 45 44 42 41 40 39 39 38 37 37 37 37 36 36 37 38 39 41 41 42 42 42 41 41 40 39 38 38 38 38 38 38 39 39 39 40 40 41 41 41 41 41 41 41 41 40 40 39 39 38 37 37
92 89 85 80 74 68 62 56 51 47 44 42 41 40 40 39 39 39 39 39 39 39 39 40 40 41 42 42 43 43 45 46 47 47 46 45 43 42 41 41 40 39 38 38 37 37 36 36 37 38 39 40 41 41 42 42 42 41 40 39 38 37 37 37 37 37 37 37 38 38 39 39 40 40 40 41 41 41 41 40 40 39 38 37 36 35
88 84 79 73 67 60 55 49 45 42 41 40 39 38 38 37 37 38 38 38 39 39 40 40 41 41 42 42 43 43 45 46 47 48 47 46 45 43 43 42 42 41 40 39 38 37 37 36 37 37 38 39 40 41 41 42 42 41 40 39 38 37 36 36 35 36 36 36 37 37 37 38 38 39 39 39 40 40 40 39 39 38 37 36 35 34
83 77 72 65 59 53 48 43 41 39 39 38 37 37 36 36 36 37 38 38 39 40 40 41 41 42 42 42 43 44 45 47 48 48 48 47 46 45 44 44 43 42 41 40 39 38 37 37 37 37 38 38 39 40 41 41 41 41 40 38 37 36 36 35 35 34 35 35 35 36 36 37 37 37 38 38 38 38 38 38 38 37 36 34 33 33
76 70 64 57 51 46 42 39 38 37 37 36 36 36 35 36 36 37 38 39 39 40 41 41 42 42 42 43 43 44 46 47 49 49 49 48 47 46 45 45 44 43 42 41 40 39 38 38 38 37 37 38 38 39 40 40 41 40 39 38 37 36 36 35 34 34 34 34 34 35 35 35 36 36 36 37 37 37 37 36 36 35 34 33 32 31
68 62 55 49 44 40 38 37 36 36 35 35 35 35 35 36 37 37 38 39 40 41 41 42 42 43 43 43 44 45 46 48 49 50 49 48 48 47 46 45 45 44 43 42 40 39 38 38 38 38 37 37 37 38 38 39 40 39 39 38 38 37 36 35 34 33 33 33 33 34 34 34 35 35 35 35 35 35 35 34 34 33 32 31 31 31
60 54 48 43 39 36 35 35 34 34 34 34 34 35 36 37 37 38 39 40 40 41 41 42 43 43 44 44 44 45 46 48 49 50 49 49 48 47 46 46 45 45 44 43 41 39 37 37 37 37 37 36 36 36 37 38 38 38 38 38 37 37 36 35 34 33 32 32 32 32 33 33 33 34 34 34 33 33 33 32 32 31 30 30 30 30
51 46 41 38 35 34 34 33 33 32 33 34 35 36 37 38 38 39 40 40 41 41 42 42 43 44 44 45 45 46 46 48 49 50 50 49 48 47 46 45 45 44 44 43 42 40 37 36 35 36 36 36 35 35 36 36 37 37 37 37 37 37 37 36 34 33 32 31 31 31 31 32 32 32 32 32 32 31 31 30 30 29 29 29 29 29
43 39 36 34 33 33 32 32 32 32 33 34 35 36 37 38 39 39 40 40 41 42 42 43 43 44 45 45 46 46 47 48 49 50 50 49 49 48 46 45 44 44 43 42 41 40 38 35 34 34 34 34 34 34 34 35 35 36 36 36 36 37 37 36 35 33 32 31 30 30 30 30 30 31 30 30 30 29 29 28 28 28 28 28 28 28
37 34 32 32 31 31 30 31 31 32 34 35 36 37 38 38 39 39 40 41 41 42 43 43 44 45 45 46 46 47 48 49 50 50 50 50 49 48 47 45 44 43 42 41 40 39 38 36 34 33 32 32 32 32 33 33 34 34 35 35 36 36 36 36 36 34 33 31 30 29 29 29 29 29 29 28 28 27 27 27 27 27 27 27 27 26
32 31 30 30 30 30 30 30 31 33 34 35 36 37 38 39 39 40 40 41 42 42 43 44 45 46 46 47 47 48 48 49 50 51 51 50 49 48 47 45 44 42 41 39 38 37 36 35 33 32 31 30 30 30 31 32 32 33 33 34 34 35 36 36 36 35 33 31 30 28 27 27 27 27 27 27 26 25 25 25 26 26 26 26 25 24
30 29 29 28 28 29 30 31 32 33 35 36 37 37 38 39 39 40 41 41 42 43 44 45 46 47 48 48 48 48 49 50 51 51 51 51 50 49 47 45 44 42 40 39 37 35 34 33 32 30 29 28 28 28 29 30 30 31 32 33 33 34 35 36 36 35 34 32 30 28 26 25 25 25 25 25 24 24 24 24 25 25 25 24 23 21
28 28 27 27 27 28 30 31 33 34 35 36 37 38 38 39 39 40 41 42 43 44 45 46 47 48 49 50 50 50 50 50 51 52 52 51 50 49 47 45 43 42 40 38 36 34 33 31 30 29 28 27 26 26 27 28 29 30 31 32 32 33 34 35 36 35 33 31 29 27 25 24 23 23 23 23 22 22 22 23 23 24 23 21 19 17
26 26 26 26 27 29 30 32 33 34 35 36 37 38 38 39 40 41 42 43 44 46 47 48 49 50 51 51 52 51 51 52 52 52 52 51 50 49 47 45 43 41 40 38 36 33 31 30 28 27 26 26 25 25 25 26 27 28 29 30 31 32 33 35 35 35 33 30 28 25 23 22 21 21 21 21 20 21 21 22 22 21 20 18 16 14
25 25 25 26 28 29 31 32 33 34 35 36 37 38 39 40 41 42 44 45 46 47 48 49 50 51 52 52 53 53 53 53 52 52 52 51 50 49 47 45 43 41 39 37 35 33 31 29 27 25 24 24 24 24 24 25 26 27 28 29 30 31 32 34 34 33 32 29 25 22 20 20 19 19 19 19 19 19 20 20 19 18 16 14 13 13
24 24 26 27 28 30 31 33 34 35 36 37 37 38 39 41 42 44 45 46 48 49 49 50 51 51 52 53 53 54 53 53 53 52 52 51 50 48 46 44 42 40 38 36 34 32 30 29 27 25 24 23 22 22 23 24 25 26 26 27 28 29 31 32 33 32 30 26 23 20 18 18 18 17 17 17 18 18 18 17 16 15 13 13 13 14
24 25 26 28 29 31 32 33 34 36 36 37 38 39 41 42 44 45 47 48 49 50 50 51 51 51 52 53 53 54 54 53 53 52 52 51 50 48 46 44 41 39 37 35 33 31 30 28 26 25 24 22 21 21 21 22 24 25 25 25 25 26 28 30 31 30 27 23 20 18 17 16 16 16 16 16 16 16 16 15 14 13 12 13 13 14
24 25 27 29 30 32 33 34 35 36 37 38 39 41 42 43 45 46 48 49 50 51 51 51 51 51 52 52 53 53 53 53 53 52 51 50 49 47 45 43 41 39 36 34 32 30 29 28 26 25 23 22 21 20 20 21 22 23 24 23 23 24 25 27 28 27 24 21 19 17 15 14 14 14 14 14 15 14 14 13 12 12 12 13 14 15
24 26 28 30 31 33 34 35 36 37 38 40 41 42 44 45 46 47 48 49 50 51 51 51 51 51 51 51 52 52 53 53 52 52 51 50 49 47 45 42 40 38 36 33 31 29 28 27 26 24 23 22 21 20 20 20 21 22 22 22 22 22 23 24 25 24 22 20 17 15 14 12 12 12 12 13 13 12 12 11 11 12 12 13 14 15
25 27 29 31 32 33 35 36 37 38 40 41 43 44 45 46 48 49 49 50 50 51 51 51 51 50 50 50 50 51 51 51 51 51 50 49 48 46 44 41 39 37 35 33 31 29 27 26 25 24 23 22 21 20 19 18 18 19 20 20 20 20 21 22 23 22 21 18 16 13 12 11 10 10 11 11 11 10 10 10 11 11 12 13 14 15
26 28 30 32 33 34 35 37 38 40 41 43 44 46 47 48 49 50 50 51 51 51 52 52 52 51 51 50 50 49 49 49 49 49 48 47 46 44 42 40 38 36 34 33 31 29 26 25 24 23 23 22 20 19 18 16 16 16 17 18 19 19 19 20 20 19 18 15 13 11 10 9 9 9 9 9 9 9 9 9 10 12 13 14 15 15
27 29 31 32 34 35 36 38 39 41 43 44 46 47 48 50 50 51 52 52 52 52 53 53 53 52 51 51 50 49 48 47 46 46 46 45 44 42 41 39 37 35 34 32 31 29 27 25 24 23 22 21 20 18 17 15 14 14 15 16 17 18 18 17 16 15 14 12 11 9 8 7 7 7 7 7 7 8 9 10 11 12 14 14 15 15
29 30 32 33 34 36 37 39 40 42 44 46 47 49 50 51 52 52 53 53 53 53 54 54 53 53 52 51 50 48 47 45 44 43 42 42 41 39 38 36 35 34 32 31 30 28 27 26 25 23 22 20 18 16 15 14 13 12 13 15 16 16 15 14 13 12 10 10 9 8 7 6 6 5 5 5 6 7 9 11 12 13 14 15 15 14
30 31 32 34 35 37 38 40 41 43 45 47 48 50 51 52 53 53 54 54 54 54 54 54 54 53 52 51 50 48 46 44 42 41 39 38 37 36 35 33 33 32 31 30 29 27 27 26 25 24 21 18 16 14 13 13 12 12 13 13 13 13 12 11 10 9 8 8 7 7 6 5 4 4 4 4 6 8 10 12 13 14 14 14 14 14
30 32 33 35 36 38 39 41 42 44 46 47 49 50 52 53 53 54 54 55 55 55 55 55 54 53 52 51 49 47 45 43 41 39 37 35 33 32 31 30 29 29 28 28 27 26 25 25 25 24 21 17 14 12 11 10 11 12 12 12 11 11 10 9 8 7 7 7 6 5 5 4 4 3 3 4 6 9 11 13 14 14 13 13 13 13
31 33 34 35 37 38 40 42 43 45 46 48 49 51 52 53 54 54 55 55 55 55 55 54 54 53 51 49 48 46 43 41 39 37 34 32 30 28 27 26 26 25 25 24 24 23 23 24 25 24 20 16 13 10 8 8 9 10 10 10 9 8 8 7 7 7 6 5 5 4 4 4 3 3 4 5 7 9 11 13 14 13 12 11 11 11
32 33 35 36 38 39 41 43 44 46 47 49 50 51 52 53 54 55 55 55 55 55 55 54 53 52 50 48 46 43 41 39 36 34 31 29 27 25 24 23 23 22 22 21 20 20 20 21 23 23 20 16 12 9 7 6 7 8 9 9 8 7 7 7 6 6 5 4 3 3 3 3 3 4 4 6 7 9 12 13 13 13 11 10 10 10
33 34 36 37 39 40 42 44 45 47 48 49 50 51 52 53 54 55 55 55 55 54 54 53 52 50 48 46 43 41 38 35 33 31 28 26 24 22 21 21 20 20 19 18 17 17 17 18 20 21 21 16 12 9 7 5 5 7 8 8 7 7 6 6 6 5 3 2 2 2 3 3 3 4 5 7 8 9 11 13 14 13 11 10 10 10
Wind_Direction
301 300 300 300 301 301 301 301 301 301 301 301 301 301 302 302 302 302 303 303 303 303 304 304 304 304 304 304 305 305 304 304 304 304 303 303 302 301 301 300 299 298 297 296 295 294 294 293 293 293 292 292 292 292 292 292 291 291 290 289 288 287 286 285 285 284 284 283 282 282 280 279 278 277 275 274 273 271 270 268 267 265 264 263 262 261
301 301 301 301 301 301 301 301 302 302 302 302 302 302 303 303 303 303 304 304 304 304 305 305 305 305 306 306 305 305 305 305 304 304 303 302 302 301 300 299 298 297 296 295 295 294 294 293 293 293 292 292 293 293 293 292 292 291 290 289 288 287 286 286 285 285 284 284 283 282 280 279 277 276 274 272 271 269 267 266 264 263 262 261 261 260
301 301 302 302 302 302 302 302 302 302 303 303 303 303 304 304 304 304 305 305 305 305 306 306 306 306 307 306 306 306 305 305 304 303 303 302 301 300 299 298 297 296 295 295 294 294 293 293 293 293 293 293 293 293 293 292 291 290 289 288 288 287 286 286 286 285 285 284 282 281 279 278 276 274 272 270 269 267 265 263 262 261 260 260 260 260
302 302 302 302 303 303 303 303 303 303 304 304 304 305 305 305 305 305 306 306 306 307 307 307 307 307 307 307 306 306 305 304 304 303 302 301 300 299 298 297 296 295 294 294 293 293 293 293 293 293 293 293 293 293 292 291 290 289 288 288 287 287 287 287 286 286 285 283 282 280 278 276 274 272 270 269 267 265 263 262 261 260 260 260 260 260
303 303 303 303 303 304 304 304 304 305 305 305 305 306 306 306 306 306 307 307 307 308 308 308 308 308 308 307 306 305 304 304 303 302 301 299 298 297 296 296 295 294 294 293 293 293 293 293 293 293 293 293 293 292 291 290 289 288 287 287 287 287 287 286 286 285 284 282 280 278 276 274 272 270 269 267 265 264 262 261 261 261 261 261 261 261
303 304 304 304 305 305 305 305 305 306 306 306 306 306 307 307 307 308 308 308 309 309 309 309 309 308 307 306 305 304 303 302 301 300 299 298 297 296 295 295 294 293 293 293 293 293 293 293 293 293 293 293 293 292 290 289 288 286 286 286 286 286 286 286 285 284 283 280 278 276 274 272 270 269 267 266 265 264 263 262 262 262 262 262 263 263
304 305 305 305 306 306 306 306 306 306 307 307 307 307 307 308 308 309 309 309 309 310 309 309 309 308 307 306 305 304 302 301 300 299 298 297 296 295 294 294 294 293 293 293 293 293 292 292 292 293 293 293 292 292 290 288 287 286 285 285 285 286 285 285 284 283 281 279 276 274 272 270 269 267 267 266 265 264 264 264 264 264 264 264 265 265
305 306 306 306 307 307 307 307 307 307 307 308 308 308 308 309 309 309 310 310 310 310 310 309 308 307 306 305 303 302 301 300 299 298 297 296 296 295 294 294 294 293 293 293 293 293 292 292 292 292 292 292 292 291 290 288 286 285 284 284 285 285 285 284 283 282 280 278 275 273 270 268 267 266 266 265 265 265 265 265 265 265 265 266 266 266
306 307 307 307 307 307 307 307 307 308 308 308 309 309 309 310 310 310 310 311 310 310 309 309 308 306 305 303 302 301 300 299 298 297 297 296 295 294 294 293 293 293 293 293 292 292 292 291 291 292 292 292 291 291 290 288 286 284 284 283 284 285 285 284 283 281 279 277 275 272 270 268 266 265 265 264 265 264 264 265 265 265 265 266 266 266
307 307 307 307 308 308 308 308 308 308 309 309 309 310 310 311 311 311 311 311 310 310 309 308 307 305 304 302 301 300 299 298 298 297 296 295 295 294 293 293 293 293 292 292 292 291 291 291 291 291 291 291 290 290 289 288 286 285 283 283 284 284 285 284 282 281 279 277 274 272 270 268 266 265 264 264 264 264 264 264 264 264 264 264 264 264
307 307 308 308 308 308 308 308 309 309 309 310 310 310 311 311 311 311 311 311 310 309 308 307 306 304 302 301 300 299 298 298 297 297 296 295 295 294 293 293 293 292 292 292 291 291 290 290 290 290 290 290 289 289 289 288 287 285 284 283 283 284 284 284 283 281 279 277 275 273 270 269 267 266 265 264 263 263 263 263 263 263 263 262 262 262
308 308 308 308 308 308 309 309 309 309 310 311 311 312 312 312 312 311 311 310 309 308 307 306 305 303 301 300 299 298 297 297 297 296 296 295 294 294 293 293 293 292 292 291 291 290 290 290 289 289 289 288 288 288 288 288 287 286 284 284 283 284 284 284 283 281 279 277 275 273 271 270 268 267 266 265 264 263 262 262 262 261 261 261 261 261
308 308 309 309 309 309 310 310 310 311 311 312 312 313 312 312 312 311 311 310 309 307 306 305 304 302 301 299 298 297 297 297 297 296 296 295 294 293 293 293 293 292 292 291 290 290 289 289 289 288 288 287 287 287 287 287 286 286 285 284 283 283 284 284 283 281 279 277 275 273 272 271 269 269 267 266 265 264 263 262 262 261 261 261 261 261
309 309 309 310 310 310 311 311 312 312 312 313 313 313 313 312 312 311 310 309 308 307 306 305 303 302 301 299 298 298 297 297 297 297 296 295 294 294 293 293 293 292 291 291 290 289 288 288 287 287 286 286 286 285 285 285 285 285 284 284 283 283 283 283 283 281 280 277 275 273 272 271 270 270 269 268 267 266 265 264 263 262 262 262 262 263
310 310 310 311 311 311 312 312 313 313 313 313 313 313 313 312 311 310 309 308 307 306 305 304 303 302 301 300 299 298 298 299 299 298 298 297 295 295 294 294 293 292 291 290 289 288 288 287 286 286 285 285 284 284 284 284 284 283 283 282 282 282 281 281 281 281 279 277 276 274 273 272 271 270 270 269 268 268 267 266 265 265 264 264 265 265
311 311 311 311 312 312 313 313 313 314 314 314 313 313 312 311 310 309 308 307 306 305 305 304 303 303 302 301 300 300 300 300 300 300 299 298 297 296 295 294 294 293 292 290 289 288 287 286 286 285 284 284 283 283 283 282 282 282 281 281 280 280 280 279 279 279 278 277 276 274 273 272 271 270 270 270 269 269 268 268 267 267 267 267 267 268
311 312 312 312 313 313 313 314 314 314 314 314 313 313 312 311 310 309 308 307 306 305 305 304 304 303 303 302 302 301 302 302 302 302 301 300 298 297 296 295 294 293 292 290 289 288 287 286 286 285 284 284 283 283 282 282 281 281 280 279 279 278 278 277 277 277 276 276 275 274 273 272 271 270 270 270 270 269 269 269 269 269 269 269 269 270
312 312 313 313 313 314 314 314 314 314 314 313 313 312 311 310 309 308 308 307 306 306 306 306 306 305 304 303 302 302 303 303 303 303 302 301 299 298 297 296 295 294 292 291 289 288 288 287 287 286 285 285 284 284 283 282 282 281 280 279 278 277 277 276 276 275 275 274 274 273 272 271 271 270 270 270 269 269 269 270 270 270 270 270 271 271
313 313 313 314 314 314 314 314 314 314 313 312 312 311 310 309 309 308 308 307 307 307 307 307 307 307 306 305 304 303 304 304 304 304 303 302 300 299 298 297 296 295 293 291 290 290 289 288 288 288 287 287 286 285 285 284 283 281 280 279 278 277 277 276 275 274 274 273 272 272 271 271 270 270 270 269 269 269 270 270 270 271 271 272 272 273
313 314 314 314 315 315 315 314 314 313 312 312 311 310 309 309 309 308 308 308 308 309 309 309 308 308 307 307 306 305 305 305 305 305 304 304 302 301 300 299 297 296 294 293 292 291 290 290 290 289 289 288 288 287 286 285 284 283 282 280 279 278 277 276 275 274 273 272 271 271 270 270 270 269 269 269 269 269 270 270 270 271 272 272 273 274
314 314 314 315 315 315 315 314 313 312 311 311 310 310 309 309 309 309 309 309 309 310 310 310 309 309 309 308 307 306 306 306 306 306 306 305 304 303 302 300 299 297 296 294 293 292 291 291 291 290 290 290 289 289 288 287 286 284 283 282 281 279 278 277 276 274 273 272 271 270 269 269 269 269 268 269 269 269 269 270 270 271 272 273 274 274
315 315 315 315 315 315 314 313 312 311 310 310 310 310 309 310 310 309 309 310 310 310 311 311 311 310 310 310 309 309 308 308 308 308 307 307 306 305 303 302 300 298 297 295 293 293 292 291 291 291 290 290 290 290 289 288 287 286 285 283 282 281 280 278 277 275 274 272 271 270 269 268 268 268 267 268 268 268 269 269 270 271 272 273 273 274
315 315 315 315 315 314 313 312 311 310 309 309 309 310 310 310 310 310 310 310 311 311 312 312 312 312 312 312 312 311 310 310 309 309 309 309 308 306 304 302 300 299 297 296 294 293 292 291 291 290 290 290 290 290 290 289 288 287 286 285 284 283 282 280 279 277 275 273 271 270 268 267 267 266 266 267 267 267 268 269 269 270 271 272 273 274
315 315 315 315 314 313 312 311 310 309 309 309 309 310 310 311 311 311 311 311 312 313 313 314 314 315 315 315 314 313 312 311 311 311 310 310 309 307 305 303 301 299 297 296 294 293 292 291 290 290 290 290 290 290 290 290 290 289 288 287 286 285 284 282 280 278 276 274 272 270 268 267 266 265 265 265 266 266 267 268 268 269 270 271 272 273
315 315 314 314 313 312 311 310 309 308 308 309 309 310 310 311 311 312 312 313 314 314 315 316 316 316 317 316 316 314 312 311 311 311 311 310 309 307 305 303 300 298 297 295 293 292 291 290 289 289 289 289 290 290 290 290 290 290 289 288 287 286 285 283 282 280 278 276 274 271 269 267 266 265 264 264 265 265 266 267 267 268 269 270 271 272
315 314 314 313 312 311 309 309 308 308 309 309 310 310 311 312 313 313 314 315 316 317 317 317 318 318 317 317 316 314 312 311 310 310 311 310 309 307 305 303 300 298 296 294 293 291 290 289 288 288 288 288 289 289 290 290 290 290 290 289 288 287 286 284 283 281 280 278 275 273 271 268 266 265 264 264 264 264 264 265 266 267 268 269 270 271
314 314 313 311 310 309 309 308 308 309 310 310 311 312 313 313 314 315 316 317 317 318 318 318 318 318 318 317 316 315 312 311 310 310 311 310 309 307 305 303 300 298 296 294 292 290 289 288 287 286 286 287 287 288 289 289 290 290 290 290 289 288 287 285 284 282 281 279 277 275 272 270 268 266 264 263 263 263 263 264 265 266 266 267 268 269
313 312 311 310 309 309 308 309 309 310 311 311 312 313 314 315 316 316 317 317 318 318 319 319 319 319 318 318 317 315 313 311 311 311 311 311 309 308 306 303 301 299 297 294 292 290 288 287 286 285 285 286 286 287 287 288 289 290 290 291 290 290 288 287 285 283 282 280 278 276 273 271 269 266 265 263 263 262 263 263 264 264 265 265 266 267
312 311 310 309 308 309 309 310 311 311 312 313 313 314 315 316 317 317 318 318 319 319 320 320 320 320 319 319 318 316 314 313 312 312 312 311 310 308 307 305 302 300 298 295 293 290 288 287 286 285 284 284 285 285 286 287 288 289 290 291 291 291 290 288 286 284 282 281 279 276 274 272 269 267 265 264 263 262 262 262 262 262 263 264 264 265
311 310 309 309 309 310 310 311 312 312 313 314 315 316 317 317 318 318 319 319 320 320 320 321 321 321 320 320 319 318 316 314 313 314 313 312 311 310 308 306 304 302 299 297 294 291 288 286 285 284 283 283 283 283 284 285 286 288 289 291 291 292 291 290 288 286 283 281 279 277 275 272 270 268 266 264 262 261 261 261 261 261 261 262 263 264
309 309 309 309 310 311 311 312 312 313 314 315 316 317 318 318 319 319 320 320 321 321 321 322 322 321 321 321 320 319 317 315 315 315 315 314 312 311 310 308 305 303 301 299 296 293 289 285 283 282 282 282 282 282 282 283 284 286 288 289 291 292 292 291 289 287 285 282 280 277 275 272 270 268 265 263 262 261 260 259 259 260 260 261 262 263
308 308 308 309 310 311 311 312 313 314 315 316 317 318 319 320 320 320 321 321 321 322 322 322 322 322 322 322 321 320 319 317 316 316 316 315 314 313 311 309 307 305 303 300 298 295 292 287 283 280 279 279 280 280 281 282 283 285 286 288 290 291 292 292 291 289 286 283 281 278 275 272 269 267 265 262 261 259 258 258 258 259 260 260 262 263
307 307 308 309 310 310 311 312 314 315 316 317 318 319 320 320 320 321 321 322 322 322 322 323 323 322 322 322 321 321 320 319 318 317 317 316 315 314 313 311 309 307 305 302 300 297 294 290 285 281 279 278 278 279 279 280 281 283 285 287 289 291 292 292 291 289 287 284 282 279 275 272 268 266 263 261 259 258 257 257 258 259 259 260 262 263
306 307 308 309 309 310 312 313 315 316 317 318 319 319 320 320 321 321 321 322 322 322 323 323 322 322 322 322 322 321 321 320 319 318 318 317 316 315 314 312 311 309 306 304 301 298 295 292 288 284 280 278 277 277 278 279 280 282 284 286 288 289 290 291 290 289 288 286 283 280 275 271 267 263 261 258 257 256 256 257 258 259 260 261 263 264
306 307 308 308 310 311 313 314 315 317 317 318 319 320 320 320 321 321 321 322 322 322 322 322 322 322 322 322 322 321 321 320 319 319 318 317 317 316 315 314 312 311 308 306 303 300 297 294 290 287 283 279 277 277 277 278 280 281 283 285 287 288 289 289 289 288 288 286 284 281 276 270 265 261 258 256 255 255 256 257 258 259 260 262 263 263
307 307 308 309 310 312 313 315 316 317 318 319 319 320 320 320 321 321 321 321 322 322 322 322 322 322 321 322 322 321 321 320 320 319 318 318 317 317 316 315 314 312 311 308 305 302 299 295 292 288 285 281 278 276 276 277 279 281 283 285 286 288 288 288 287 287 287 286 285 282 276 269 263 259 256 255 255 255 256 256 257 259 261 262 262 261
307 307 308 310 311 313 314 316 317 318 318 319 319 320 320 320 320 321 321 321 321 322 322 322 322 322 321 321 321 321 321 321 320 319 318 318 317 317 316 316 315 314 312 310 308 305 301 298 294 290 286 283 280 277 276 276 278 280 282 284 286 287 287 286 286 286 286 286 285 281 274 267 262 258 256 255 255 255 255 256 257 258 260 261 260 260
307 308 309 311 312 314 315 316 317 318 318 319 319 319 320 320 320 320 320 321 321 322 322 322 322 322 321 321 321 321 320 320 319 319 318 317 317 317 316 316 316 315 314 312 310 308 304 301 296 292 287 284 281 279 278 278 278 279 281 283 285 286 285 285 285 285 286 285 283 279 272 266 261 259 257 256 255 255 254 255 256 257 258 259 260 262
307 308 310 312 313 315 316 317 317 318 318 318 319 319 319 320 320 320 320 321 321 321 322 322 322 322 321 321 320 320 320 319 319 318 318 317 317 316 316 316 316 316 315 313 312 310 307 304 300 295 290 286 282 281 280 280 280 281 282 283 284 284 284 283 283 284 285 284 281 276 270 266 262 260 259 257 255 254 254 254 255 257 259 261 264 267
308 310 312 313 314 316 317 317 317 318 318 318 318 319 319 319 320 320 321 321 321 322 322 322 322 322 321 321 320 320 319 319 318 318 317 317 316 316 316 316 316 316 315 314 313 311 309 306 302 299 294 290 286 283 282 282 283 283 283 283 283 282 281 281 282 283 283 282 280 275 271 267 263 260 258 255 254 253 253 254 256 259 262 266 270 274
309 311 313 315 316 317 317 318 318 318 318 318 318 319 319 320 320 320 321 321 321 321 322 322 322 321 321 320 320 320 319 318 318 317 317 316 316 316 316 316 316 316 316 315 314 312 310 308 304 301 297 293 290 288 286 286 286 286 286 284 282 279 278 278 279 280 281 281 279 276 272 267 262 258 255 253 252 252 252 254 258 263 267 272 277 281
311 313 314 316 317 317 318 318 318 318 318 318 318 319 319 320 320 321 321 321 321 321 321 321 321 320 320 320 319 319 319 318 317 316 316 315 315 315 315 315 316 316 316 316 315 313 311 309 306 302 299 296 293 292 290 290 290 289 288 285 281 278 276 276 277 278 279 279 279 276 271 265 258 254 251 250 249 250 251 255 261 267 272 278 282 287
313 314 316 317 317 318 318 319 319 318 319 319 319 319 320 320 320 320 320 320 320 320 320 319 319 319 319 319 319 318 318 317 316 315 315 314 314 314 314 314 315 316 316 316 315 314 312 310 307 304 301 299 297 296 295 294 293 291 288 285 281 277 274 273 274 276 278 279 277 274 268 261 254 250 247 246 247 250 253 259 265 271 277 282 286 289
314 315 316 317 318 319 319 319 319 319 319 319 319 320 320 320 320 321 320 320 320 319 319 319 318 318 318 318 318 317 317 316 315 314 313 313 313 313 313 313 314 315 316 316 316 315 313 310 308 306 303 302 302 302 301 300 298 293 288 283 279 276 273 272 272 274 276 277 275 270 263 256 249 245 243 244 248 253 260 266 272 277 282 285 288 290
315 316 317 318 319 319 319 319 320 320 320 320 320 320 320 321 321 321 320 320 320 319 319 318 318 318 318 318 318 317 316 315 314 313 312 311 311 311 312 312 313 314 315 315 315 315 314 312 310 308 306 306 307 308 309 307 301 294 286 281 278 276 274 272 271 271 273 274 273 269 261 252 244 241 241 247 253 262 269 275 279 283 285 288 289 289
316 317 318 319 319 320 320 320 320 320 320 320 320 321 321 321 321 321 320 320 320 319 319 319 319 319 319 318 318 317 316 315 313 311 310 310 309 309 310 311 312 313 314 315 314 314 313 312 311 310 309 310 312 315 316 312 304 293 284 279 277 275 274 272 270 270 271 272 271 268 259 248 241 239 242 250 261 270 276 280 283 286 288 289 288 286
318 319 319 320 320 320 320 320 321 321 321 321 321 321 321 321 321 321 321 320 320 319 319 319 319 319 319 319 319 318 316 315 313 311 309 308 308 307 308 309 310 312 313 313 313 313 313 313 313 313 313 315 319 322 321 314 304 293 284 278 275 274 273 273 272 271 271 271 269 265 254 245 240 240 244 257 268 276 280 283 285 287 288 287 285 282
319 320 320 321 321 321 321 321 321 322 322 322 322 322 322 322 322 321 321 321 320 320 320 320 320 320 320 320 319 318 317 316 314 312 310 308 307 306 306 307 309 310 311 312 313 313 314 314 314 314 316 320 326 330 328 316 303 292 284 278 274 273 274 275 276 275 274 271 264 256 247 239 234 235 247 263 275 280 283 285 287 287 287 285 281 276
320 321 321 321 321 321 322 322 322 322 323 323 323 323 322 322 322 322 321 321 321 321 321 321 321 321 321 321 320 319 318 316 315 313 310 309 307 306 306 307 308 310 311 312 313 314 315 315 314 315 318 323 330 335 332 315 299 288 282 277 274 275 277 280 282 281 278 270 258 243 230 224 223 232 252 270 279 282 284 286 288 288 287 283 278 275
321 322 322 322 322 322 323 323 323 323 324 324 324 323 323 323 323 322 322 322 322 322 322 322 322 322 322 322 321 320 319 317 315 313 311 309 308 307 308 309 309 310 311 312 313 313 314 313 312 313 319 326 333 336 331 311 289 279 276 276 277 282 285 287 288 287 281 268 245 225 213 213 224 244 262 273 279 282 284 286 287 288 288 286 281 278
322 323 323 323 323 324 324 324 324 325 325 325 325 325 324 324 324 323 323 323 323 323 323 323 324 324 324 323 323 322 320 318 316 314 312 311 310 310 311 311 312 312 313 313 313 313 312 310 307 308 313 325 337 340 329 310 282 272 274 279 287 294 297 298 297 294 287 267 231 211 210 225 245 262 271 277 279 280 281 283 285 288 290 291 289 286
Height
5600 5598 5596 5594 5592 5590 5587 5585 5582 5580 5576 5574 5571 5569 5565 5562 5559 5555 5552 5549 5545 5541 5537 5534 5530 5525 5521 5517 5512 5507 5503 5498 5494 5490 5485 5481 5477 5474 5470 5467 5464 5461 5458 5455 5453 5451 5449 5447 5445 5444 5442 5440 5439 5437 5435 5434 5432 5431 5429 5428 5426 5425 5423 5422 5421 5420 5418 5417 5416 5415 5414 5413 5412 5411 5410 5410 5409 5409 5408 5408 5407 5407 5407 5407 5407 5408
5595 5593 5590 5588 5586 5584 5581 5578 5576 5573 5570 5567 5565 5562 5559 5556 5552 5549 5545 5541 5537 5533 5530 5525 5521 5517 5512 5507 5503 5498 5493 5488 5484 5480 5476 5472 5468 5465 5461 5459 5456 5453 5451 5449 5447 5445 5443 5441 5440 5439 5437 5435 5434 5432 5431 5429 5428 5426 5425 5424 5422 5421 5420 5418 5417 5416 5415 5413 5412 5411 5410 5409 5408 5407 5406 5406 5405 5405 5405 5404 5404 5404 5404 5405 5405 5405
5590 5588 5585 5583 5581 5579 5575 5572 5569 5566 5564 5561 5558 5555 5552 5549 5545 5542 5538 5534 5530 5525 5521 5517 5513 5508 5503 5498 5493 5489 5484 5480 5475 5471 5467 5464 5460 5457 5454 5451 5449 5447 5445 5443 5441 5440 5438 5436 5435 5434 5432 5430 5429 5428 5426 5425 5423 5422 5421 5420 5418 5417 5416 5415 5413 5412 5411 5410 5408 5407 5406 5405 5405 5404 5403 5402 5402 5402 5401 5401 5401 5401 5402 5402 5402 5403
5585 5582 5580 5578 5575 5573 5570 5566 5563 5560 5557 5554 5551 5548 5545 5542 5538 5534 5530 5526 5522 5518 5513 5508 5503 5499 5494 5489 5484 5479 5475 5471 5467 5463 5460 5456 5453 5450 5447 5445 5443 5441 5439 5438 5436 5435 5433 5432 5430 5429 5427 5426 5425 5423 5422 5420 5419 5418 5417 5416 5415 5414 5412 5411 5410 5409 5407 5406 5405 5404 5403 5402 5401 5400 5400 5399 5399 5399 5399 5399 5399 5399 5399 5400 5400 5400
5580 5577 5574 5572 5569 5566 5563 5560 5557 5553 5550 5547 5544 5541 5538 5534 5530 5526 5523 5519 5514 5510 5505 5499 5494 5490 5485 5480 5475 5470 5467 5463 5459 5456 5452 5450 5447 5444 5441 5440 5438 5436 5435 5433 5431 5430 5428 5427 5425 5424 5423 5421 5420 5419 5417 5416 5415 5414 5413 5412 5411 5410 5409 5408 5407 5405 5404 5403 5402 5400 5400 5399 5398 5397 5397 5396 5396 5396 5396 5396 5396 5396 5396 5397 5397 5398
5574 5571 5568 5565 5563 5560 5557 5553 5550 5546 5543 5540 5537 5534 5531 5527 5523 5519 5515 5510 5505 5501 5496 5491 5486 5481 5476 5471 5466 5463 5459 5456 5453 5450 5446 5443 5441 5439 5436 5435 5433 5431 5430 5428 5427 5425 5423 5422 5420 5419 5418 5417 5415 5414 5413 5412 5411 5410 5409 5408 5407 5406 5405 5405 5403 5402 5401 5400 5399 5397 5396 5396 5395 5395 5394 5394 5394 5393 5393 5393 5393 5393 5394 5394 5394 5395
5568 5565 5563 5559 5556 5553 5550 5547 5543 5540 5536 5533 5530 5527 5524 5520 5516 5511 5507 5502 5496 5492 5487 5483 5478 5472 5468 5463 5459 5455 5452 5449 5446 5444 5441 5438 5435 5433 5431 5430 5428 5426 5425 5423 5422 5420 5419 5417 5416 5415 5413 5412 5411 5410 5409 5408 5407 5406 5405 5404 5403 5403 5402 5401 5400 5399 5398 5396 5395 5395 5394 5393 5392 5392 5391 5391 5391 5390 5390 5390 5390 5390 5390 5391 5391 5391
5562 5559 5556 5554 5550 5546 5543 5540 5536 5533 5530 5526 5522 5519 5516 5512 5508 5504 5500 5495 5489 5483 5479 5475 5470 5465 5460 5455 5452 5449 5445 5443 5440 5438 5436 5433 5430 5429 5427 5425 5424 5422 5420 5419 5417 5415 5414 5412 5411 5410 5409 5407 5406 5405 5404 5403 5402 5401 5401 5400 5400 5399 5398 5397 5396 5395 5394 5393 5392 5391 5390 5390 5389 5389 5388 5388 5388 5388 5388 5387 5387 5387 5387 5388 5388 5388
5556 5553 5550 5547 5544 5541 5537 5533 5529 5526 5523 5520 5516 5512 5509 5505 5500 5495 5491 5486 5481 5476 5471 5467 5463 5458 5452 5448 5445 5442 5440 5437 5435 5433 5431 5429 5426 5424 5422 5421 5419 5417 5415 5414 5412 5410 5409 5407 5406 5405 5404 5403 5401 5400 5400 5399 5398 5397 5396 5396 5395 5395 5394 5394 5393 5392 5391 5390 5389 5388 5387 5387 5386 5386 5385 5385 5385 5385 5385 5385 5385 5385 5385 5385 5385 5385
5550 5548 5545 5541 5537 5535 5532 5528 5523 5519 5515 5512 5508 5504 5501 5498 5494 5489 5483 5478 5473 5468 5464 5460 5456 5452 5447 5442 5438 5436 5435 5433 5430 5428 5426 5424 5422 5420 5418 5416 5415 5413 5411 5409 5407 5405 5404 5402 5401 5400 5399 5398 5397 5396 5395 5394 5393 5393 5392 5392 5391 5391 5390 5390 5389 5388 5387 5386 5385 5385 5384 5384 5383 5383 5383 5382 5382 5382 5382 5381 5381 5381 5382 5382 5382 5382
5545 5542 5539 5535 5531 5528 5525 5521 5517 5513 5509 5505 5501 5496 5491 5488 5485 5481 5476 5471 5465 5460 5456 5452 5448 5445 5442 5438 5434 5430 5429 5428 5426 5424 5422 5419 5417 5415 5413 5411 5410 5409 5407 5405 5402 5400 5399 5397 5396 5395 5394 5393 5392 5391 5390 5389 5389 5388 5388 5387 5387 5387 5386 5386 5385 5384 5383 5383 5382 5381 5381 5380 5380 5380 5380 5379 5379 5379 5379 5379 5379 5378 5379 5379 5379 5380
5539 5535 5532 5529 5525 5521 5518 5514 5510 5505 5502 5498 5494 5489 5484 5478 5474 5471 5468 5464 5459 5455 5451 5447 5442 5438 5435 5433 5430 5426 5424 5424 5422 5420 5418 5415 5412 5410 5408 5407 5405 5404 5402 5400 5398 5395 5394 5393 5392 5390 5389 5388 5387 5386 5385 5385 5384 5384 5383 5383 5383 5382 5382 5381 5381 5380 5380 5379 5378 5377 5377 5377 5377 5376 5376 5376 5376 5376 5376 5376 5375 5375 5375 5376 5376 5376
5532 5529 5526 5522 5518 5514 5510 5506 5502 5498 5493 5490 5485 5481 5477 5471 5466 5462 5459 5455 5451 5448 5445 5442 5438 5434 5430 5427 5424 5422 5420 5419 5418 5417 5414 5411 5408 5405 5404 5402 5401 5399 5397 5395 5393 5391 5390 5388 5387 5386 5385 5383 5382 5381 5380 5380 5380 5379 5379 5379 5378 5378 5377 5377 5377 5376 5375 5375 5374 5374 5373 5373 5373 5373 5373 5372 5372 5372 5372 5372 5372 5372 5372 5372 5373 5373
5525 5522 5518 5515 5510 5507 5503 5499 5494 5490 5485 5481 5477 5473 5469 5464 5459 5455 5452 5448 5444 5440 5438 5437 5434 5430 5425 5422 5419 5416 5415 5414 5414 5412 5410 5407 5403 5401 5400 5398 5397 5395 5393 5391 5389 5387 5385 5384 5383 5381 5380 5378 5377 5376 5376 5375 5375 5375 5375 5374 5374 5373 5373 5373 5372 5372 5371 5370 5370 5370 5369 5369 5369 5369 5369 5369 5369 5369 5369 5369 5369 5369 5369 5369 5369 5369
5519 5515 5511 5507 5503 5499 5495 5491 5487 5482 5477 5473 5469 5465 5461 5456 5451 5448 5445 5442 5439 5435 5433 5431 5429 5425 5421 5417 5414 5412 5411 5410 5409 5408 5406 5403 5399 5396 5395 5394 5393 5391 5389 5387 5385 5383 5381 5380 5378 5376 5375 5374 5373 5372 5372 5371 5371 5370 5370 5370 5369 5369 5368 5368 5368 5367 5367 5366 5366 5365 5365 5365 5365 5365 5365 5365 5365 5365 5365 5365 5365 5365 5365 5365 5365 5365
5512 5508 5504 5500 5496 5492 5487 5483 5479 5475 5470 5465 5461 5457 5454 5450 5445 5441 5438 5436 5433 5430 5428 5426 5424 5421 5417 5412 5409 5407 5406 5405 5404 5403 5402 5399 5395 5392 5391 5390 5389 5387 5385 5383 5380 5378 5377 5375 5374 5372 5370 5370 5369 5368 5368 5367 5367 5366 5366 5365 5365 5364 5364 5364 5363 5363 5362 5362 5362 5361 5361 5361 5361 5361 5361 5361 5361 5361 5361 5361 5361 5361 5361 5361 5361 5361
5505 5501 5497 5493 5489 5485 5480 5475 5470 5466 5462 5459 5455 5450 5446 5443 5440 5436 5433 5430 5428 5425 5423 5421 5419 5417 5414 5410 5405 5401 5401 5401 5400 5398 5397 5395 5391 5388 5387 5386 5385 5383 5381 5379 5376 5375 5373 5371 5370 5368 5366 5365 5364 5364 5363 5363 5362 5362 5361 5360 5360 5360 5359 5359 5359 5358 5358 5358 5357 5357 5357 5357 5357 5357 5357 5357 5357 5357 5357 5357 5357 5357 5357 5357 5357 5357
5498 5494 5490 5486 5481 5477 5473 5469 5464 5459 5455 5451 5448 5445 5440 5437 5433 5431 5428 5425 5423 5420 5418 5416 5414 5412 5410 5407 5402 5398 5397 5397 5396 5395 5393 5391 5388 5385 5383 5382 5381 5379 5377 5375 5373 5370 5369 5367 5365 5363 5362 5361 5360 5360 5359 5358 5358 5357 5357 5356 5355 5355 5355 5354 5354 5354 5353 5353 5353 5353 5353 5353 5353 5353 5353 5353 5353 5353 5353 5353 5353 5353 5353 5353 5354 5354
5492 5487 5483 5479 5475 5470 5465 5461 5456 5452 5448 5445 5442 5439 5436 5432 5429 5426 5423 5420 5418 5416 5414 5412 5409 5407 5405 5403 5399 5395 5394 5393 5392 5391 5390 5388 5385 5382 5380 5379 5377 5375 5374 5371 5369 5367 5365 5363 5361 5359 5358 5356 5356 5355 5355 5354 5353 5353 5352 5351 5351 5350 5350 5350 5349 5349 5349 5349 5349 5348 5348 5348 5349 5349 5349 5349 5349 5349 5349 5349 5349 5349 5349 5350 5350 5350
5485 5480 5476 5472 5468 5464 5458 5453 5449 5445 5442 5439 5436 5433 5431 5428 5425 5422 5419 5417 5415 5412 5410 5408 5405 5403 5400 5399 5395 5392 5390 5389 5388 5387 5386 5385 5382 5380 5377 5375 5374 5372 5370 5368 5365 5363 5362 5360 5357 5355 5354 5352 5351 5351 5350 5350 5349 5349 5348 5347 5347 5346 5345 5345 5345 5344 5344 5344 5344 5344 5344 5344 5344 5344 5344 5344 5345 5345 5345 5345 5345 5345 5345 5345 5345 5345
5478 5473 5468 5464 5461 5457 5452 5447 5442 5438 5435 5433 5430 5428 5425 5424 5421 5418 5416 5414 5411 5409 5407 5404 5402 5399 5397 5395 5392 5389 5386 5385 5384 5383 5382 5381 5379 5376 5374 5372 5370 5369 5367 5365 5362 5360 5358 5356 5354 5352 5350 5349 5348 5347 5346 5345 5345 5344 5344 5343 5342 5342 5341 5340 5340 5340 5340 5339 5339 5339 5340 5340 5340 5340 5340 5340 5340 5340 5340 5340 5341 5341 5341 5341 5341 5341
5471 5467 5461 5456 5453 5450 5446 5442 5437 5433 5430 5428 5426 5424 5421 5420 5417 5415 5412 5410 5408 5406 5404 5401 5398 5396 5393 5391 5388 5385 5382 5381 5380 5379 5378 5377 5375 5373 5370 5368 5367 5365 5364 5361 5359 5357 5355 5353 5351 5349 5347 5345 5344 5343 5342 5341 5340 5340 5340 5339 5338 5338 5337 5336 5336 5335 5335 5335 5335 5335 5335 5335 5335 5335 5335 5335 5335 5336 5336 5336 5336 5337 5337 5337 5337 5337
5464 5460 5455 5450 5446 5443 5439 5436 5432 5428 5425 5423 5422 5420 5418 5417 5415 5412 5409 5407 5405 5403 5401 5398 5395 5392 5390 5387 5384 5381 5378 5376 5375 5375 5374 5373 5371 5370 5367 5365 5363 5362 5360 5358 5356 5354 5352 5350 5348 5345 5343 5341 5340 5339 5338 5337 5336 5336 5335 5335 5334 5334 5333 5332 5332 5331 5331 5330 5330 5330 5330 5330 5330 5330 5331 5331 5331 5331 5332 5332 5332 5332 5333 5333 5333 5333
5456 5453 5449 5444 5440 5437 5433 5430 5427 5425 5422 5420 5419 5417 5415 5413 5411 5408 5406 5404 5402 5400 5398 5395 5392 5390 5386 5384 5381 5378 5375 5372 5371 5370 5369 5368 5367 5366 5363 5361 5359 5358 5356 5355 5353 5351 5349 5348 5345 5343 5340 5338 5336 5335 5334 5333 5332 5332 5331 5331 5330 5330 5329 5329 5328 5327 5326 5326 5326 5326 5326 5326 5326 5326 5326 5326 5327 5327 5327 5328 5328 5328 5329 5329 5329 5330
5450 5446 5442 5439 5435 5432 5429 5426 5423 5421 5419 5418 5416 5413 5411 5409 5407 5405 5402 5400 5398 5396 5394 5392 5389 5386 5384 5381 5378 5375 5371 5369 5367 5365 5365 5364 5363 5362 5360 5357 5355 5354 5352 5351 5349 5347 5346 5344 5342 5340 5337 5335 5333 5332 5330 5329 5328 5328 5327 5327 5326 5326 5325 5325 5324 5323 5323 5322 5322 5321 5321 5321 5321 5322 5322 5322 5322 5323 5323 5323 5324 5324 5325 5325 5325 5326
5444 5440 5437 5433 5430 5427 5425 5422 5420 5418 5415 5414 5412 5410 5408 5406 5404 5401 5399 5397 5395 5393 5390 5388 5386 5383 5381 5378 5375 5372 5369 5365 5363 5362 5361 5360 5359 5357 5356 5353 5351 5350 5348 5347 5346 5344 5342 5341 5339 5337 5334 5332 5330 5328 5327 5325 5324 5324 5323 5323 5323 5322 5321 5321 5320 5320 5319 5318 5318 5317 5317 5317 5317 5317 5317 5318 5318 5318 5319 5319 5320 5320 5320 5321 5321 5322
5438 5434 5431 5428 5425 5423 5420 5418 5416 5414 5412 5410 5408 5406 5405 5403 5401 5399 5396 5394 5392 5390 5387 5385 5383 5380 5378 5376 5373 5370 5366 5362 5360 5358 5358 5356 5355 5353 5351 5349 5347 5345 5344 5343 5342 5340 5339 5337 5335 5334 5331 5329 5327 5325 5323 5321 5320 5320 5319 5319 5319 5318 5318 5317 5316 5316 5315 5315 5314 5313 5313 5313 5313 5313 5313 5314 5314 5314 5315 5315 5315 5316 5317 5317 5318 5318
5432 5429 5426 5423 5421 5419 5417 5415 5412 5410 5409 5407 5405 5403 5401 5400 5398 5396 5393 5391 5389 5387 5384 5382 5380 5377 5375 5373 5370 5367 5363 5359 5356 5355 5354 5353 5351 5349 5347 5345 5343 5341 5340 5338 5338 5337 5335 5333 5331 5330 5328 5326 5324 5322 5320 5318 5317 5316 5315 5315 5315 5314 5314 5313 5313 5312 5311 5311 5310 5310 5309 5309 5309 5309 5309 5310 5310 5310 5311 5311 5312 5312 5313 5313 5314 5314
5426 5424 5421 5419 5417 5415 5413 5411 5409 5407 5405 5404 5402 5400 5398 5397 5395 5393 5390 5388 5386 5384 5381 5379 5376 5374 5372 5370 5367 5364 5360 5356 5353 5351 5350 5349 5347 5345 5343 5341 5338 5336 5335 5333 5333 5333 5332 5330 5327 5325 5324 5323 5321 5319 5317 5315 5314 5312 5311 5311 5310 5310 5309 5309 5309 5308 5308 5307 5306 5306 5305 5305 5305 5305 5305 5305 5306 5306 5307 5307 5308 5308 5309 5310 5310 5310
5421 5419 5417 5415 5413 5412 5410 5408 5406 5405 5403 5401 5399 5397 5395 5393 5391 5390 5387 5385 5383 5380 5378 5375 5373 5370 5368 5366 5363 5360 5357 5353 5350 5347 5346 5345 5342 5340 5339 5336 5334 5332 5330 5328 5327 5328 5328 5326 5324 5321 5320 5319 5317 5316 5314 5312 5310 5309 5308 5307 5306 5306 5305 5305 5305 5305 5304 5304 5303 5302 5302 5301 5301 5301 5302 5302 5302 5303 5303 5304 5304 5305 5305 5306 5306 5306
5417 5415 5413 5411 5410 5408 5407 5405 5403 5402 5400 5398 5396 5394 5392 5390 5388 5386 5384 5381 5379 5377 5375 5372 5370 5367 5365 5362 5360 5357 5354 5350 5346 5344 5342 5340 5338 5336 5335 5332 5330 5328 5326 5324 5322 5322 5322 5322 5321 5319 5316 5315 5314 5312 5310 5309 5307 5306 5305 5304 5303 5302 5301 5301 5300 5300 5300 5300 5299 5299 5298 5298 5298 5298 5298 5298 5299 5299 5300 5300 5300 5301 5301 5302 5303 5303
5415 5413 5411 5409 5407 5406 5404 5402 5401 5399 5397 5395 5393 5391 5389 5387 5385 5382 5380 5378 5376 5374 5371 5369 5366 5364 5361 5359 5356 5353 5350 5346 5343 5340 5339 5336 5334 5332 5331 5328 5325 5323 5322 5320 5318 5316 5316 5316 5316 5315 5313 5312 5310 5309 5307 5306 5304 5303 5301 5300 5300 5298 5298 5297 5296 5296 5296 5296 5295 5295 5295 5294 5294 5294 5295 5295 5295 5296 5296 5297 5297 5297 5298 5299 5299 5300
5412 5410 5409 5407 5405 5404 5402 5400 5398 5396 5395 5392 5390 5388 5386 5384 5382 5379 5377 5375 5372 5370 5368 5365 5363 5360 5358 5355 5352 5350 5346 5343 5340 5337 5335 5333 5330 5328 5327 5325 5322 5319 5317 5316 5314 5312 5311 5310 5310 5310 5310 5308 5307 5305 5304 5302 5301 5300 5298 5297 5296 5295 5294 5293 5292 5292 5292 5292 5292 5291 5291 5291 5291 5291 5291 5292 5292 5293 5293 5293 5294 5294 5295 5295 5295 5296
5410 5408 5407 5405 5403 5401 5400 5398 5396 5394 5392 5390 5388 5386 5383 5381 5379 5376 5374 5371 5369 5366 5364 5362 5359 5357 5354 5351 5349 5346 5343 5339 5336 5333 5330 5328 5326 5324 5322 5320 5318 5315 5313 5311 5310 5308 5307 5306 5305 5305 5305 5304 5304 5302 5300 5299 5298 5297 5295 5294 5293 5292 5291 5290 5289 5288 5288 5288 5288 5288 5288 5287 5288 5288 5288 5289 5289 5290 5290 5290 5290 5291 5291 5292 5292 5293
5408 5406 5405 5403 5401 5399 5397 5395 5394 5392 5390 5388 5385 5383 5381 5378 5376 5373 5371 5368 5366 5363 5360 5358 5355 5353 5350 5348 5345 5342 5340 5336 5332 5329 5326 5324 5322 5320 5318 5316 5314 5311 5309 5307 5306 5305 5303 5302 5301 5300 5300 5300 5300 5299 5297 5296 5295 5294 5292 5291 5290 5289 5288 5287 5285 5285 5285 5285 5284 5284 5284 5284 5285 5285 5285 5286 5286 5287 5287 5287 5288 5288 5288 5289 5290 5290
5405 5404 5403 5401 5399 5398 5395 5394 5392 5390 5387 5385 5383 5381 5378 5376 5373 5371 5368 5365 5363 5360 5357 5354 5351 5348 5345 5343 5341 5338 5335 5333 5329 5326 5323 5320 5318 5316 5314 5312 5310 5308 5305 5303 5302 5301 5299 5298 5297 5297 5296 5296 5295 5295 5295 5293 5292 5291 5290 5288 5287 5286 5285 5283 5282 5282 5281 5281 5281 5281 5281 5281 5281 5282 5282 5283 5284 5284 5285 5285 5285 5285 5285 5286 5287 5288
5403 5402 5400 5399 5397 5396 5394 5392 5390 5387 5385 5383 5380 5378 5376 5373 5371 5368 5365 5363 5360 5357 5354 5351 5348 5344 5341 5338 5335 5333 5331 5328 5325 5322 5319 5316 5314 5312 5310 5308 5306 5304 5302 5299 5298 5297 5295 5295 5294 5293 5293 5292 5291 5291 5291 5290 5290 5288 5287 5286 5285 5283 5281 5280 5279 5278 5278 5278 5278 5278 5278 5278 5279 5279 5280 5280 5281 5281 5282 5282 5282 5282 5283 5284 5285 5285
5401 5400 5398 5397 5395 5394 5392 5390 5387 5385 5383 5381 5378 5376 5373 5371 5368 5365 5363 5360 5357 5354 5351 5348 5344 5340 5337 5334 5330 5328 5326 5324 5321 5318 5315 5312 5310 5308 5307 5305 5303 5301 5299 5296 5295 5293 5292 5291 5290 5290 5289 5289 5288 5288 5287 5287 5286 5285 5285 5283 5282 5280 5279 5277 5276 5275 5275 5275 5275 5276 5276 5276 5276 5277 5277 5278 5278 5279 5279 5279 5280 5280 5281 5281 5282 5283
5399 5398 5396 5395 5393 5391 5390 5387 5385 5383 5381 5378 5376 5374 5371 5369 5366 5363 5360 5357 5354 5351 5348 5345 5341 5338 5334 5330 5327 5324 5321 5319 5316 5314 5311 5309 5306 5305 5303 5301 5299 5297 5295 5294 5292 5290 5289 5287 5287 5286 5286 5285 5285 5285 5285 5284 5283 5282 5282 5281 5280 5278 5276 5274 5273 5273 5273 5273 5273 5273 5274 5274 5274 5275 5275 5275 5276 5276 5276 5277 5277 5278 5279 5279 5280 5280
5397 5396 5394 5393 5391 5389 5387 5385 5383 5381 5378 5376 5374 5371 5369 5366 5364 5360 5357 5354 5351 5348 5345 5342 5339 5335 5331 5327 5323 5320 5317 5315 5312 5310 5307 5305 5303 5301 5299 5297 5296 5294 5292 5291 5289 5288 5286 5285 5283 5283 5282 5282 5282 5282 5282 5281 5280 5279 5279 5278 5277 5276 5274 5272 5271 5270 5270 5270 5271 5271 5271 5272 5272 5272 5273 5273 5274 5274 5274 5275 5275 5276 5276 5277 5278 5278
5395 5394 5392 5391 5389 5387 5385 5383 5380 5378 5376 5374 5371 5369 5367 5364 5361 5358 5355 5351 5348 5345 5342 5339 5336 5333 5329 5325 5320 5317 5313 5310 5308 5305 5303 5301 5299 5297 5295 5294 5292 5290 5289 5288 5286 5285 5284 5282 5281 5280 5279 5279 5279 5279 5279 5278 5277 5276 5275 5275 5274 5274 5272 5270 5269 5268 5268 5268 5269 5269 5270 5270 5270 5270 5271 5271 5271 5272 5272 5273 5273 5274 5274 5275 5275 5275
5394 5392 5391 5389 5387 5385 5382 5380 5378 5376 5374 5371 5369 5367 5364 5361 5359 5356 5353 5350 5346 5343 5340 5337 5334 5331 5328 5324 5319 5315 5311 5307 5304 5302 5300 5297 5295 5294 5292 5290 5289 5287 5286 5285 5284 5283 5281 5280 5278 5277 5277 5276 5276 5276 5276 5275 5275 5274 5273 5272 5271 5271 5270 5269 5267 5266 5266 5266 5267 5267 5268 5268 5269 5269 5269 5270 5270 5270 5271 5271 5272 5272 5272 5272 5273 5273
5392 5391 5389 5387 5385 5383 5380 5378 5376 5373 5371 5369 5366 5364 5361 5359 5356 5353 5350 5347 5344 5341 5338 5335 5332 5330 5326 5323 5319 5315 5310 5306 5302 5299 5296 5294 5292 5291 5289 5288 5286 5285 5283 5282 5281 5280 5279 5278 5276 5275 5274 5274 5274 5273 5273 5272 5272 5271 5270 5269 5269 5268 5268 5266 5265 5265 5265 5265 5265 5266 5266 5267 5267 5267 5268 5268 5268 5269 5269 5270 5270 5270 5270 5270 5270 5270
5391 5389 5387 5385 5383 5380 5378 5376 5374 5371 5369 5366 5363 5360 5358 5355 5353 5350 5347 5344 5341 5338 5335 5332 5329 5326 5323 5320 5317 5314 5310 5305 5301 5297 5294 5291 5290 5288 5286 5285 5284 5282 5281 5280 5278 5277 5276 5275 5274 5273 5272 5272 5271 5271 5270 5270 5269 5269 5268 5267 5266 5266 5265 5265 5264 5264 5264 5264 5264 5264 5265 5265 5265 5266 5266 5266 5267 5267 5267 5268 5268 5268 5268 5268 5268 5268
5389 5387 5385 5383 5381 5379 5376 5374 5371 5369 5366 5363 5360 5358 5355 5352 5349 5346 5344 5341 5338 5335 5331 5328 5325 5322 5319 5316 5314 5311 5308 5304 5300 5296 5293 5290 5288 5286 5284 5283 5281 5280 5279 5277 5276 5275 5274 5273 5272 5271 5270 5270 5269 5268 5268 5267 5267 5266 5266 5265 5264 5264 5263 5263 5263 5263 5263 5263 5263 5263 5263 5264 5264 5265 5265 5265 5266 5266 5266 5266 5266 5266 5266 5266 5265 5265
5387 5385 5383 5381 5379 5377 5375 5372 5369 5366 5364 5360 5358 5355 5352 5349 5346 5343 5340 5337 5334 5331 5327 5324 5321 5318 5315 5312 5309 5307 5304 5301 5298 5295 5292 5289 5286 5284 5282 5280 5279 5278 5276 5275 5274 5273 5272 5270 5270 5269 5268 5268 5267 5266 5266 5265 5265 5265 5264 5263 5263 5262 5262 5262 5262 5262 5262 5262 5262 5262 5262 5262 5263 5264 5264 5264 5264 5265 5265 5264 5264 5264 5264 5264 5263 5263
5386 5384 5382 5380 5377 5375 5372 5370 5367 5365 5361 5358 5355 5352 5349 5346 5343 5340 5336 5333 5330 5327 5323 5320 5317 5314 5310 5307 5304 5302 5299 5297 5295 5292 5290 5287 5285 5283 5281 5279 5278 5276 5275 5273 5272 5271 5270 5269 5268 5267 5266 5265 5265 5265 5264 5264 5263 5262 5262 5261 5261 5261 5260 5260 5260 5261 5261 5261 5261 5261 5261 5261 5262 5262 5262 5263 5263 5263 5263 5263 5262 5262 5262 5262 5261 5261
5384 5382 5380 5378 5375 5373 5370 5368 5365 5362 5359 5356 5353 5349 5346 5343 5340 5336 5333 5330 5326 5323 5320 5316 5313 5310 5306 5303 5300 5297 5295 5292 5290 5288 5286 5284 5283 5281 5279 5278 5276 5275 5274 5272 5271 5270 5268 5267 5265 5265 5264 5264 5263 5263 5263 5262 5262 5261 5260 5260 5260 5260 5260 5260 5260 5260 5260 5260 5260 5260 5260 5261 5261 5261 5261 5261 5261 5261 5261 5261 5261 5260 5260 5260 5259 5259
5382 5380 5378 5376 5374 5371 5368 5366 5363 5360 5357 5354 5351 5347 5343 5340 5336 5333 5330 5326 5322 5319 5315 5312 5308 5305 5302 5299 5296 5293 5290 5288 5286 5284 5282 5281 5280 5279 5277 5276 5275 5274 5273 5271 5270 5269 5268 5266 5264 5263 5262 5262 5262 5262 5262 5261 5260 5260 5259 5259 5259 5259 5259 5259 5259 5259 5259 5259 5259 5259 5260 5260 5260 5260 5260 5260 5260 5260 5260 5259 5259 5258 5258 5258 5257 5257
5380 5378 5376 5374 5372 5369 5366 5364 5361 5358 5355 5352 5349 5345 5341 5337 5334 5330 5326 5322 5319 5315 5311 5308 5304 5301 5298 5295 5292 5290 5287 5285 5282 5280 5279 5278 5277 5276 5275 5275 5274 5273 5272 5271 5270 5269 5267 5266 5264 5262 5260 5260 5260 5261 5260 5260 5260 5259 5259 5258 5258 5258 5258 5258 5258 5258 5258 5258 5258 5258 5259 5259 5259 5260 5260 5259 5259 5258 5258 5257 5257 5256 5256 5255 5255 5255
5379 5376 5375 5372 5370 5367 5365 5362 5359 5356 5353 5350 5346 5343 5339 5335 5331 5327 5323 5319 5315 5311 5308 5304 5301 5297 5294 5291 5288 5286 5284 5281 5279 5277 5276 5275 5275 5274 5273 5273 5272 5271 5270 5270 5269 5268 5267 5266 5264 5262 5260 5259 5259 5260 5260 5259 5259 5258 5258 5258 5258 5258 5257 5257 5257 5257 5257 5257 5257 5258 5258 5258 5258 5258 5258 5258 5257 5257 5256 5256 5255 5255 5254 5254 5253 5253